Location: Antichan
(42.9728°N, 0.6667°E)
Time: 17:38:57
(UTC+00:00)

USA 32 - Pass Details

Date: 15 August 2020
Orbit: 778 x 782 km, 85.0° (Epoch: 12 September)

Event Time Altitude Azimuth Distance (km) Brightness Sun altitude
Exits shadow 20:21:24 - 173° (S) 2,509 6.3 -14.2°
Reaches altitude 10° 20:21:52 10° 173° (S) 2,327 6.1 -14.3°
Maximum altitude 20:27:02 67° 91° (E) 847 4.0 -15.1°
Drops below altitude 10° 20:32:14 10° 10° (N) 2,341 6.9 -15.8°
Sets 20:34:37 0° 8° (N) 3,273 7.7 -16.2°
